sat.trackr.live / text

‹ back to catalog

STARLINK-5041

NORAD 53891 · 2022-119F

PAYLOAD ACTIVE UNKNOWN

§ Identity

Operator
Country
US
Launch date
2022-09-24
Launch site
AFETR
Launch vehicle
Mass (kg)
RCS (m²)

Purposes: comms

External: N2YO · Heavens-Above · Gunter

§ Orbital elements

Epoch: 2026-09-20T22:00:03.000096Z

Period
90.45 min
Inclination
53.2133°
Eccentricity
0.0000961
Mean motion
15.92084157 rev/d
Perigee alt
295.8 km
Apogee alt
297.1 km
Semi-major
6,674.6 km
B*
1.1089e-3
RAAN
118.4418°
Arg perigee
84.8587°
Mean anomaly
213.3770°
Rev number
594

§ Raw data

STARLINK-50411 53891U 22119F   26263.91670139  .00375037  64714-4  11089-2 0  99982 53891  53.2133 118.4418 0000961  84.8587 213.3770 15.92084157  5941

JSON: /api/v1/satellites/53891 · /tle

For live sub-satellite position, see the globe view (requires WebGL).

§ Visibility from observer

Set your observer location to see the next 7 days of passes ≥ 10°. The values pass through the URL so the page stays shareable.

No JS? Fill the form by hand. The geolocation button needs JavaScript.